Location: Hilton Head Island
(32.2163°N, 80.7526°W)
Time: 08:48:38
(UTC-04:00)

Vanguard 2 Rocket - Pass Details

Date: 19 February 2026
Orbit: 553 x 3286 km, 32.9° (Epoch: 16 March)

Event Time Altitude Azimuth Distance (km) Brightness Sun altitude
Rises 13:42:24 0° 259° (W) 7,258 11.8 44.0°
Reaches altitude 10° 13:47:26 10° 260° (W) 6,175 11.6 43.5°
Maximum altitude 14:06:42 90° 348° (NNW) 2,529 9.9 41.7°
Drops below altitude 10° 14:18:35 10° 84° (E) 4,060 10.0 40.4°
Sets 14:21:11 0° 84° (E) 4,757 10.3 40.0°
